Tracking 19909 objects as of 22-Oct-2019
HD Live streaming from Space Station
objects crossing your sky now

OPS 7034 (TRANSIT 18)

Track OPS 7034 (TRANSIT 18) now!
10-day predictions
OPS 7034 (TRANSIT 18) is classified as:


NORAD ID: 3133
Int'l Code: 1968-012A
Perigee: 1,019.4 km
Apogee: 1,131.7 km
Inclination: 90.0 °
Period: 106.6 minutes
Semi major axis: 7446 km
RCS: 1.3738 m2 (large)
Launch date: March 2, 1968
Source: United States (US)
Launch site: AIR FORCE WESTERN TEST RANGE (AFWTR)
aabbcc
Your satellite tracking list
Your tracking list is empty




NASA's NSSDC Master Catalog

Two Line Element Set (TLE):
1  3133U 68012A   19295.50762214  .00000049  00000-0  59996-4 0  9995
2  3133  89.9749 272.4975 0075426 185.4585 292.7025 13.51052658542761
Source of the keplerian elements: AFSPC